| time (UTC) | temp F | wind direction | speed MPH | gust MPH | rain 1hr in | rain 24hr in | rain mn in | humidity % | barometer mb |
| 20260506124022 | 81 | 153 | 7.0 | 13.0 | 0.00 | 0.00 | 0.00 | 29 | 1010.9 |
| 20260506123102 | 80 | 172 | 7.0 | 12.0 | 0.00 | 0.00 | 0.00 | 30 | 1010.9 |
| 20260506122039 | 80 | 147 | 7.0 | 15.0 | 0.00 | 0.00 | 0.00 | 29 | 1011.1 |
| 20260506121020 | 0 | 0.0 | 0.0 | 0.00 | 0.00 | 0.00 | |||
| 20260506120020 | 0 | 0.0 | 0.0 | 0.00 | 0.00 | 0.00 | |||
| 20260506115021 | 0 | 0.0 | 0.0 | 0.00 | 0.00 | 0.00 | |||
| 20260506114020 | 80 | 152 | 8.0 | 13.0 | 0.00 | 0.00 | 0.00 | 27 | 1011.5 |
| 20260506113020 | 80 | 150 | 7.0 | 15.0 | 0.00 | 0.00 | 0.00 | 27 | 1011.5 |
| 20260506112021 | 80 | 149 | 6.0 | 15.0 | 0.00 | 0.00 | 0.00 | 28 | 1011.6 |
| 20260506111019 | 80 | 151 | 6.0 | 13.0 | 0.00 | 0.00 | 0.00 | 30 | 1011.6 |
| 20260506110019 | 80 | 141 | 7.0 | 15.0 | 0.00 | 0.00 | 0.00 | 32 | 1011.7 |
| 20260506105022 | 79 | 148 | 5.0 | 13.0 | 0.00 | 0.00 | 0.00 | 32 | 1011.6 |
| 20260506104023 | 79 | 142 | 7.0 | 13.0 | 0.00 | 0.00 | 0.00 | 32 | 1011.8 |
| 20260506103020 | 79 | 134 | 7.0 | 13.0 | 0.00 | 0.00 | 0.00 | 32 | 1011.8 |
| 20260506102019 | 79 | 177 | 7.0 | 14.0 | 0.00 | 0.00 | 0.00 | 33 | 1011.9 |
| 20260506101021 | 78 | 136 | 6.0 | 13.0 | 0.00 | 0.00 | 0.00 | 33 | 1012.0 |
| 20260506100021 | 78 | 138 | 6.0 | 11.0 | 0.00 | 0.00 | 0.00 | 34 | 1012.0 |
| 20260506095019 | 77 | 130 | 7.0 | 12.0 | 0.00 | 0.00 | 0.00 | 34 | 1012.1 |
| 20260506094020 | 76 | 133 | 7.0 | 13.0 | 0.00 | 0.00 | 0.00 | 35 | 1012.2 |
| 20260506093020 | 76 | 174 | 7.0 | 14.0 | 0.00 | 0.00 | 0.00 | 36 | 1012.1 |
| 20260506092020 | 76 | 127 | 5.0 | 10.0 | 0.00 | 0.00 | 0.00 | 36 | 1012.2 |
| 20260506091020 | 76 | 110 | 5.0 | 9.0 | 0.00 | 0.00 | 0.00 | 37 | 1012.3 |
| 20260506090021 | 74 | 147 | 6.0 | 10.0 | 0.00 | 0.00 | 0.00 | 38 | 1012.2 |
| 20260506085040 | 74 | 122 | 5.0 | 11.0 | 0.00 | 0.00 | 0.00 | 38 | 1012.3 |
| 20260506084019 | 73 | 141 | 5.0 | 12.0 | 0.00 | 0.00 | 0.00 | 40 | 1012.2 |
| 20260506083019 | 72 | 130 | 7.0 | 13.0 | 0.00 | 0.00 | 0.00 | 40 | 1012.2 |
| 20260506082021 | 71 | 116 | 7.0 | 13.0 | 0.00 | 0.00 | 0.00 | 41 | 1012.3 |
| 20260506081020 | 70 | 137 | 7.0 | 12.0 | 0.00 | 0.00 | 0.00 | 42 | 1012.2 |
| 20260506073021 | 67 | 119 | 7.0 | 12.0 | 0.00 | 0.00 | 0.00 | 45 | 1012.3 |
| 20260506072046 | 67 | 121 | 6.0 | 11.0 | 0.00 | 0.00 | 0.00 | 46 | 1012.3 |
| 20260506071020 | 66 | 127 | 6.0 | 11.0 | 0.00 | 0.00 | 0.00 | 46 | 1012.3 |
| 20260506062020 | 62 | 124 | 4.0 | 9.0 | 0.00 | 0.00 | 0.00 | 50 | 1012.4 |
| 20260506061021 | 61 | 124 | 6.0 | 11.0 | 0.00 | 0.00 | 0.00 | 50 | 1012.5 |
| 20260506051019 | 57 | 104 | 4.0 | 10.0 | 0.00 | 0.00 | 0.00 | 57 | 1012.3 |
| 20260506045020 | 55 | 119 | 4.0 | 7.0 | 0.00 | 0.00 | 0.00 | 60 | 1012.3 |
| 20260506044044 | 55 | 63 | 3.0 | 6.0 | 0.00 | 0.00 | 0.00 | 63 | 1012.3 |
| 20260506043020 | 54 | 111 | 4.0 | 8.0 | 0.00 | 0.00 | 0.00 | 63 | 1012.4 |
| 20260506042021 | 53 | 109 | 3.0 | 5.0 | 0.00 | 0.00 | 0.00 | 64 | 1012.3 |
| 20260506041023 | 52 | 64 | 2.0 | 6.0 | 0.00 | 0.00 | 0.00 | 65 | 1012.2 |
| 20260506040020 | 51 | 112 | 4.0 | 6.0 | 0.00 | 0.00 | 0.00 | 65 | 1012.2 |
| 20260506035023 | 51 | 131 | 2.0 | 4.0 | 0.00 | 0.00 | 0.00 | 66 | 1012.2 |
| 20260506034020 | 50 | 118 | 3.0 | 6.0 | 0.00 | 0.00 | 0.00 | 66 | 1012.1 |
| 20260506033022 | 50 | 123 | 3.0 | 5.0 | 0.00 | 0.00 | 0.00 | 67 | 1012.0 |
| 20260506032020 | 50 | 107 | 1.0 | 4.0 | 0.00 | 0.00 | 0.00 | 67 | 1012.1 |
| 20260506031020 | 49 | 114 | 5.0 | 9.0 | 0.00 | 0.00 | 0.00 | 67 | 1011.9 |
| 20260506025021 | 49 | 90 | 5.0 | 6.0 | 0.00 | 0.00 | 0.00 | 68 | 1011.6 |
| 20260506024100 | 50 | 101 | 3.0 | 5.0 | 0.00 | 0.00 | 0.00 | 68 | 1011.6 |
| 20260506023022 | 50 | 101 | 4.0 | 6.0 | 0.00 | 0.00 | 0.00 | 68 | 1011.6 |
| 20260506022021 | 50 | 112 | 5.0 | 9.0 | 0.00 | 0.00 | 0.00 | 68 | 1011.6 |
| 20260506021019 | 50 | 109 | 5.0 | 8.0 | 0.00 | 0.00 | 0.00 | 69 | 1011.4 |
| 20260506020021 | 50 | 101 | 5.0 | 11.0 | 0.00 | 0.00 | 0.00 | 69 | 1011.3 |
| 20260506015021 | 51 | 84 | 6.0 | 11.0 | 0.00 | 0.00 | 0.00 | 69 | 1011.4 |
| 20260506014040 | 51 | 102 | 7.0 | 10.0 | 0.00 | 0.00 | 0.00 | 71 | 1011.5 |
| 20260506013019 | 51 | 95 | 4.0 | 7.0 | 0.00 | 0.00 | 0.00 | 71 | 1011.5 |
| 20260506012019 | 51 | 95 | 5.0 | 7.0 | 0.00 | 0.00 | 0.00 | 72 | 1011.4 |
| 20260506011021 | 52 | 92 | 5.0 | 9.0 | 0.00 | 0.00 | 0.00 | 70 | 1011.4 |
| 20260506010041 | 53 | 101 | 6.0 | 10.0 | 0.00 | 0.00 | 0.00 | 69 | 1011.4 |
| 20260506005042 | 53 | 115 | 6.0 | 9.0 | 0.00 | 0.00 | 0.00 | 69 | 1011.3 |
| 20260506004020 | 53 | 116 | 7.0 | 11.0 | 0.00 | 0.00 | 0.00 | 69 | 1011.3 |
| 20260506003102 | 53 | 116 | 7.0 | 11.0 | 0.00 | 0.00 | 0.00 | 70 | 1011.1 |
| 20260506002022 | 53 | 114 | 7.0 | 10.0 | 0.00 | 0.00 | 0.00 | 70 | 1011.2 |
| 20260506001019 | 54 | 109 | 7.0 | 10.0 | 0.00 | 0.00 | 0.00 | 69 | 1011.1 |
| 20260506000020 | 54 | 120 | 5.0 | 8.0 | 0.00 | 0.00 | 0.00 | 69 | 1011.2 |
| 20260505235020 | 54 | 111 | 5.0 | 9.0 | 0.00 | 0.00 | 0.00 | 68 | 1011.1 |
| 20260505234019 | 55 | 114 | 5.0 | 11.0 | 0.00 | 0.00 | 0.00 | 67 | 1011.0 |
| 20260505233021 | 55 | 114 | 6.0 | 12.0 | 0.00 | 0.00 | 0.00 | 67 | 1011.1 |
| 20260505232020 | 55 | 104 | 8.0 | 12.0 | 0.00 | 0.00 | 0.00 | 66 | 1011.0 |
| 20260505231021 | 56 | 108 | 7.0 | 13.0 | 0.00 | 0.00 | 0.00 | 65 | 1011.1 |
| 20260505230021 | 56 | 106 | 9.0 | 13.0 | 0.00 | 0.00 | 0.00 | 64 | 1011.0 |
| 20260505225020 | 57 | 107 | 8.0 | 13.0 | 0.00 | 0.00 | 0.00 | 63 | 1011.0 |
| 20260505224019 | 57 | 103 | 8.0 | 12.0 | 0.00 | 0.00 | 0.00 | 63 | 1011.1 |
| 20260505223019 | 57 | 97 | 6.0 | 10.0 | 0.00 | 0.00 | 0.00 | 62 | 1011.1 |
| 20260505222020 | 58 | 98 | 6.0 | 8.0 | 0.00 | 0.00 | 0.00 | 60 | 1011.0 |
| 20260505221020 | 59 | 96 | 5.0 | 9.0 | 0.00 | 0.00 | 0.00 | 58 | 1011.2 |
| 20260505220020 | 61 | 96 | 5.0 | 7.0 | 0.00 | 0.00 | 0.00 | 55 | 1011.2 |
| 20260505215020 | 61 | 112 | 5.0 | 9.0 | 0.00 | 0.00 | 0.00 | 53 | 1011.1 |
| 20260505214020 | 62 | 122 | 5.0 | 9.0 | 0.00 | 0.00 | 0.00 | 53 | 1011.1 |
| 20260505213039 | 62 | 121 | 5.0 | 10.0 | 0.00 | 0.00 | 0.00 | 51 | 1011.0 |
| 20260505212041 | 63 | 125 | 4.0 | 8.0 | 0.00 | 0.00 | 0.00 | 50 | 1011.1 |
| 20260505211020 | 64 | 131 | 4.0 | 9.0 | 0.00 | 0.00 | 0.00 | 49 | 1011.0 |
| 20260505210020 | 64 | 139 | 3.0 | 6.0 | 0.00 | 0.00 | 0.00 | 48 | 1011.1 |
| 20260505205018 | 64 | 148 | 3.0 | 6.0 | 0.00 | 0.00 | 0.00 | 47 | 1011.0 |
| 20260505204019 | 65 | 140 | 5.0 | 9.0 | 0.00 | 0.00 | 0.00 | 46 | 1011.0 |
| 20260505203019 | 65 | 132 | 4.0 | 7.0 | 0.00 | 0.00 | 0.00 | 46 | 1011.0 |
| 20260505202040 | 65 | 128 | 4.0 | 7.0 | 0.00 | 0.00 | 0.00 | 46 | 1011.0 |
| 20260505201020 | 65 | 148 | 5.0 | 8.0 | 0.00 | 0.00 | 0.00 | 46 | 1011.1 |
| 20260505200019 | 65 | 154 | 5.0 | 7.0 | 0.00 | 0.00 | 0.00 | 47 | 1011.0 |
| 20260505195039 | 65 | 160 | 5.0 | 7.0 | 0.00 | 0.00 | 0.00 | 47 | 1010.9 |
| 20260505194019 | 65 | 156 | 4.0 | 7.0 | 0.00 | 0.00 | 0.00 | 47 | 1010.9 |
| 20260505193018 | 66 | 154 | 5.0 | 8.0 | 0.00 | 0.00 | 0.00 | 47 | 1010.8 |
| 20260505192018 | 67 | 150 | 4.0 | 9.0 | 0.00 | 0.00 | 0.00 | 46 | 1010.8 |
| 20260505191017 | 67 | 155 | 5.0 | 9.0 | 0.00 | 0.00 | 0.00 | 45 | 1010.8 |
| 20260505190018 | 67 | 156 | 5.0 | 8.0 | 0.00 | 0.00 | 0.00 | 45 | 1010.7 |
| 20260505185018 | 67 | 143 | 4.0 | 6.0 | 0.00 | 0.00 | 0.00 | 45 | 1010.7 |
| 20260505184019 | 69 | 194 | 4.0 | 6.0 | 0.00 | 0.00 | 0.00 | 42 | 1010.6 |
| 20260505183018 | 70 | 156 | 5.0 | 8.0 | 0.00 | 0.00 | 0.00 | 41 | 1010.5 |
| 20260505182038 | 71 | 145 | 4.0 | 9.0 | 0.00 | 0.00 | 0.00 | 39 | 1010.4 |
| 20260505181019 | 70 | 135 | 5.0 | 9.0 | 0.00 | 0.00 | 0.00 | 38 | 1010.4 |
| 20260505180017 | 71 | 132 | 3.0 | 4.0 | 0.00 | 0.00 | 0.00 | 35 | 1010.3 |
| 20260505175017 | 72 | 123 | 3.0 | 4.0 | 0.00 | 0.00 | 0.00 | 34 | 1010.1 |
| 20260505174017 | 73 | 110 | 3.0 | 6.0 | 0.00 | 0.00 | 0.00 | 33 | 1010.1 |
| 20260505173018 | 73 | 117 | 3.0 | 4.0 | 0.00 | 0.00 | 0.00 | 32 | 1010.1 |
| 20260505172017 | 74 | 103 | 3.0 | 4.0 | 0.00 | 0.00 | 0.00 | 31 | 1010.1 |
| 20260505171017 | 75 | 117 | 3.0 | 4.0 | 0.00 | 0.00 | 0.00 | 31 | 1010.0 |
| 20260505165038 | 77 | 113 | 3.0 | 4.0 | 0.00 | 0.00 | 0.00 | 30 | 1010.1 |
| 20260505164037 | 78 | 104 | 2.0 | 3.0 | 0.00 | 0.00 | 0.00 | 31 | 1010.0 |
| 20260505163017 | 78 | 106 | 1.0 | 2.0 | 0.00 | 0.00 | 0.00 | 30 | 1010.1 |
| 20260505162017 | 78 | 109 | 2.0 | 4.0 | 0.00 | 0.00 | 0.00 | 29 | 1010.1 |
| 20260505161018 | 78 | 102 | 3.0 | 5.0 | 0.00 | 0.00 | 0.00 | 28 | 1010.1 |
| 20260505153017 | 80 | 120 | 3.0 | 6.0 | 0.00 | 0.00 | 0.00 | 25 | 1010.3 |
| 20260505152017 | 80 | 122 | 3.0 | 7.0 | 0.00 | 0.00 | 0.00 | 25 | 1010.3 |
| 20260505151018 | 81 | 114 | 2.0 | 7.0 | 0.00 | 0.00 | 0.00 | 25 | 1010.3 |
| 20260505125016 | 81 | 85 | 3.0 | 5.0 | 0.00 | 0.00 | 0.00 | 27 | 1011.1 |